Location: Ferma
(41.9500°N, 44.5167°E)
Time: 19:35:53
(UTC+00:00)

BREEZE-M DEB (TANK) - Pass Details

Date: 29 May 2022
Orbit: 338 x 14778 km, 49.6° (Epoch: 25 June)

Event Time Altitude Azimuth Distance (km) Brightness Sun altitude
Rises 14:47:47 0° 296° (WNW) 14,619 11.9 16.4°
Reaches altitude 10° 14:59:57 10° 298° (WNW) 15,221 12.5 14.2°
Maximum altitude 17:12:21 67° 246° (WSW) 11,265 9.7 -7.6°
Drops below altitude 10° 17:54:53 10° 166° (SSE) 7,317 8.2 -13.4°
Enters shadow 17:56:19 - 164° (SSE) 7,368 8.2 -13.6°
